Location: Unspecified
(39.0670°S, 0.0000°E)
Time: 03:09:49
(UTC+00:00)

AO-85 - Visible Passes

Search period start: 21 August 2019 00:00
Search period end: 31 August 2019 00:00
Orbit: 506 x 778 km, 64.8° (Epoch: 14 August)

Date Brightness Start Highest point End Pass type
(mag) Time Alt. Az. Time Alt. Az. Time Alt. Az.
24 Aug ? 20:40:03 10° SSW 20:40:13 11° SSW 20:40:13 11° SSW visible
25 Aug ? 19:25:22 10° S 19:26:57 15° SSE 19:26:57 15° SSE visible
25 Aug ? 21:04:34 10° SW 21:04:34 10° SW 21:04:34 10° SW visible
26 Aug ? 19:49:12 10° SSW 19:51:22 23° S 19:51:22 23° S visible
27 Aug ? 18:35:05 10° SSE 18:37:25 13° SE 18:38:14 13° SE visible
27 Aug ? 20:13:31 10° SSW 20:15:53 28° SSW 20:15:53 28° SSW visible
28 Aug ? 18:58:26 10° S 19:02:34 25° SE 19:02:51 25° SE visible
28 Aug ? 20:38:16 10° SW 20:40:30 25° SW 20:40:30 25° SW visible
29 Aug ? 19:22:33 10° SSW 19:27:29 51° SE 19:27:36 51° ESE visible
29 Aug ? 21:03:45 10° WSW 21:05:15 16° WSW 21:05:15 16° WSW visible
30 Aug ? 18:07:50 10° S 18:11:19 18° SE 18:14:50 10° E visible
30 Aug ? 19:47:06 10° SW 19:52:11 73° WNW 19:52:30 70° NNW visible
